Regional Weather Roundup
Issued by NWS

Home | Current Version | Previous Version | Text Only | Print | Product List | Glossary On
Versions: 1 2 3 4 5 6 7 8 9 10 11 12 13 14 15 16 17 18 19 20 21 22 23 24 25 26 27 28 29 30 31 32 33 34 35 36 37 38 39 40 41 42 43 44 45 46 47 48 49 50
387
ASUS45 KCYS 270810
RWRWY

WYOMING REGIONAL WEATHER ROUNDUP
NATIONAL WEATHER SERVICE CHEYENNE WY
200 AM MDT FRI MAY 27 2016

NOTE:  "FAIR" INDICATES FEW OR NO CLOUDS BELOW 12,000 FEET
WITH NO SIGNIFICANT WEATHER AND/OR OBSTRUCTIONS TO VISIBILITY.

WYZ001-270900-
YELLOWSTONE NATIONAL PARK

CITY           SKY/WX    TMP DP  RH WIND       PRES   REMARKS
LK YELLOWSTONE   N/A     31  29  92 CALM      30.08F
W YELLOWSTONE  NOT AVBL

$$
WYZ002>013-054>058-071-098>099-270900-
NORTHERN WYOMING

CITY           SKY/WX    TMP DP  RH WIND       PRES   REMARKS
JACKSON        CLOUDY    43  41  93 N5        30.01F
CODY           FAIR      43  37  81 S6        29.95R
GREYBULL       FAIR      47  43  86 SE3       29.92S
WORLAND        FAIR      45  42  89 CALM      29.93S
SHERIDAN       MOCLDY    49  42  77 CALM      29.93R
BUFFALO        FAIR      45  38  76 W6        29.95S
GILLETTE       CLOUDY    46  43  89 S5        29.91F
HULETT         CLOUDY    46  41  81 S3        29.91F
NEWCASTLE      FAIR      46  34  61 N9        29.90S

$$
WYZ014>020-022>026-101>103-270900-
CENTRAL WYOMING

CITY           SKY/WX    TMP DP  RH WIND       PRES   REMARKS
BIG PINEY      FAIR      36  32  85 NE5       30.04R WCI  32
PINEDALE       FAIR      34  32  93 W6        30.04R WCI  29
DUBOIS         FAIR      34  30  86 SE6       30.02R WCI  29
LANDER         FAIR      47  36  65 SW8       29.97F
RIVERTON       FAIR      48  37  65 W8        29.98S
CASPER         MOCLDY    41  37  86 NW5       29.96R
DOUGLAS          N/A    N/A N/A N/A MISG      29.94S

$$
WYZ021-027>030-104>119-270900-
SOUTHERN WYOMING

CITY           SKY/WX    TMP DP  RH WIND       PRES   REMARKS
EVANSTON       FAIR      39  33  79 S6        30.05R WCI  35
KEMMERER         N/A     41  32  70 CALM      30.05S
FORT BRIDGER   CLOUDY    43  39  87 NW6       30.08R
ROCK SPRINGS   FAIR      44  38  79 E6        30.02F
DIXON          FAIR      41  38  87 NE5       30.02S
RAWLINS        CLOUDY    38  34  85 CALM      29.99F
SARATOGA       FAIR      36  32  87 W6        29.99F WCI  31
LARAMIE        FAIR      36  34  92 E5        29.96F WCI  32
CHEYENNE       CLOUDY    49  37  63 N14       29.90S
TORRINGTON     FAIR      50  41  71 N8        29.86R
PINE BLUFFS    CLOUDY    46  43  87 NW13      29.87S

$$




USA.gov is the U.S. government's official web portal to all federal, state and local government web resources and services.